RAPIDEYE 1 (33314 NORAD) Tracking and Keplerian Element Data

This shows tracking and keplerian element data for the satellite.

Feedback or suggestion? Click here.




ElementValue
Catalog33314
NameRAPIDEYE 1
Epoch Orbit65062
Epoch Day255.65102855
Epoch Year2020
RAAN319.2691
Inclination97.705
Eccentricity0.0028076
Argument of Perigee90.4946
Mean Anonmoly269.9492
Mean Motion14.94844279
Decay Rate2.38E-06
L11 33314U 08040C 20255.65102855 .00000238 00000-0 26981-4 0 9995
L22 33314 97.7050 319.2691 0028076 90.4946 269.9492 14.94844279650622



Live tracking and technical data element details for RAPIDEYE 1 (NORAD 33314). RAPIDEYE 1 can be tracked NOW for your location showing map with azimuth and elevation plus other details from your city location.







IsCatalogInMostPopularTable: catalog: 33314, numindb: 336
Update: records affected: 1



GetName: 33314 RAPIDEYE 1

Hit Count: updated at: Sat, 07 Mar 2026 07:04:40 GMT